Track FLOCK 3P 86 now! 10-day predictions FLOCK 3P 86 is classified as:
1 41985U 17008AP 19053.42492962 .00000954 00000-0 41012-4 0 9999 2 41985 97.4232 121.8206 0007664 184.3018 175.8155 15.25067464112077